Starlink 31868

operational
NORAD ID: 59783 Int'l Des: 2024-093 Owner: SPXS Country: US Constellation: starlink
LEOCIRCULAR

Starlink 31868について

説明を読み込み中...

リアルタイム位置

3D地球を読み込み中...

次回通過

高度履歴

Altitude vs Time

uPlot chart will show altitude changes over time

軌道要素

1 59783U 24093B 25352.88439105 -.00008384 00000-0 -29516-3 0 9996
2 59783 43.0025 302.0200 0000942 248.7659 111.3092 15.27618154 90377
Epoch: Dec 18, 2025 • Age: 8 hours

現在のステータス

高度 486.9 km
速度 7.62 km/s
衛星直下点 -18.88°S, 116.54°E
打ち上げ日 May 18, 2024
運用期間 1.5 years
タイプ internet

技術仕様

分類 Payload
質量 730.00 kg
乾燥質量 700.00 kg
総質量 730.00 kg
長さ 0.30 m
直径 4.10 m
スパン 29.00 m
形状 Box + pan
製造者 SPXS
バスタイプ Starlink V2M
フェーズステータス In Orbit
所有者/国 SPXS/US

大規模コンステレーション

Loading constellations...